Weather History for KVPZ - February, 2013

Change the Weather History Date:

Tuesday, February 12, 2013

  Actual Average Record
Temperature  
Mean Temperature 26 °F 27 °F  
Max Temperature 31 °F 34 °F 48 °F (2005)
Min Temperature 21 °F 19 °F -9 °F (2014)
Degree Days  
Heating Degree Days 39 38  
Month to date heating degree days 449 476  
Since 1 July heating degree days 3810 4161  
Cooling Degree Days 0 0  
Month to date cooling degree days 0 0  
Year to date cooling degree days 0 0  
Moisture  
Dew Point 21 °F    
Average Humidity 76    
Maximum Humidity 92    
Minimum Humidity 69    
Precipitation  
Precipitation 0.00 in 0.06 in 0.09 in (2006)
Month to date precipitation 0.40 0.59  
Year to date precipitation 2.69 2.34  
Sea Level Pressure  
Sea Level Pressure 30.06 in    
Wind  
Wind Speed 9 mph (West)    
Max Wind Speed 21 mph    
Max Gust Speed 26 mph    
Visibility 10 miles    
Events      
T = Trace of Precipitation, MM = Missing Value Source: NWS Daily Summary

Daily Weather History Graph

Daily Weather History Graph

Search for Another Location

Airport or City:

Trip Planner

Search our weather history database for the weather conditions in past years. The results will help you decide how hot, cold, wet, or windy it might be!

Date:

Astronomy

Feb. 12, 2013 Rise Set
Actual Time 6:46 AM CST 5:18 PM CST
Civil Twilight 6:18 AM CST 5:46 PM CST
Nautical Twilight 5:45 AM CST 6:19 PM CST
Astronomical Twilight 5:13 AM CST 6:51 PM CST
Moon 7:41 AM CST (2/12) 8:21 PM CST (2/12)
Length of Visible Light 11h 28m
Length of Day
10h 31m
Waxing Crescent, 7% of the Moon is Illuminated
Feb 12
Waxing Crescent
Feb 17
First Quarter
Feb 25
Full
Mar 4
Last Quarter
Mar 11
New

Hourly Weather History & Observations

Time (CST) Temp. Windchill Dew Point Humidity Pressure Visibility Wind Dir Wind Speed Gust Speed Precip Events Conditions
12:53 AM 30.0 °F 19.5 °F 21.0 °F 69% 30.06 in 10.0 mi West 13.8 mph 25.3 mph N/A   Overcast
1:53 AM 28.9 °F 17.3 °F 21.0 °F 72% 30.07 in 10.0 mi West 16.1 mph - N/A   Overcast
2:53 AM 28.0 °F 15.3 °F 21.0 °F 75% 30.09 in 10.0 mi West 18.4 mph 24.2 mph N/A   Overcast
3:53 AM 27.0 °F 14.3 °F 19.9 °F 75% 30.10 in 10.0 mi WNW 17.3 mph 25.3 mph N/A   Overcast
4:53 AM 27.0 °F 17.3 °F 19.0 °F 72% 30.11 in 10.0 mi West 10.4 mph - N/A   Overcast
5:53 AM 27.0 °F 17.3 °F 19.9 °F 75% 30.11 in 10.0 mi West 10.4 mph - N/A   Overcast
6:53 AM 26.1 °F 18.4 °F 19.0 °F 75% 30.11 in 10.0 mi WNW 6.9 mph - N/A   Overcast
7:53 AM 27.0 °F 19.5 °F 19.9 °F 75% 30.13 in 10.0 mi West 6.9 mph - N/A   Overcast
8:53 AM 28.0 °F 20.0 °F 19.9 °F 72% 30.11 in 10.0 mi SW 8.1 mph - N/A   Overcast
9:53 AM 28.9 °F 19.8 °F 21.0 °F 72% 30.13 in 10.0 mi West 10.4 mph - N/A   Overcast
10:53 AM 30.0 °F 20.0 °F 21.9 °F 72% 30.12 in 10.0 mi SW 12.7 mph - N/A   Overcast
11:53 AM 30.0 °F 20.5 °F 21.9 °F 72% 30.06 in 10.0 mi WNW 11.5 mph - N/A   Overcast
12:53 PM 30.0 °F 21.1 °F 21.9 °F 72% 30.05 in 10.0 mi West 10.4 mph - N/A   Overcast
1:53 PM 30.0 °F 21.1 °F 21.9 °F 72% 30.06 in 10.0 mi WSW 10.4 mph - N/A   Overcast
2:53 PM 30.0 °F 21.1 °F 21.9 °F 72% 30.06 in 10.0 mi WSW 10.4 mph - N/A   Overcast
3:53 PM 30.0 °F 21.1 °F 21.9 °F 72% 30.05 in 10.0 mi WSW 10.4 mph - N/A   Overcast
4:53 PM 28.9 °F 21.9 °F 21.9 °F 75% 30.03 in 10.0 mi West 6.9 mph - N/A   Overcast
5:53 PM 28.9 °F 19.2 °F 21.9 °F 75% 30.02 in 10.0 mi West 11.5 mph - N/A   Overcast
6:53 PM 28.0 °F 19.3 °F 21.9 °F 78% 30.02 in 10.0 mi West 9.2 mph - N/A   Mostly Cloudy
7:24 PM 26.6 °F 22.6 °F 21.2 °F 80% 29.98 in 10.0 mi West 3.5 mph - N/A   Scattered Clouds
7:53 PM 26.1 °F 21.9 °F 21.0 °F 81% 30.00 in 10.0 mi WNW 3.5 mph - N/A   Clear
8:53 PM 25.0 °F - 19.9 °F 81% 29.98 in 10.0 mi Calm Calm - N/A   Clear
9:53 PM 23.0 °F - 19.0 °F 85% 29.98 in 8.0 mi Calm Calm - N/A   Clear
10:53 PM 21.9 °F 17.2 °F 19.0 °F 89% 29.98 in 7.0 mi South 3.5 mph - N/A   Clear
11:53 PM 21.0 °F - 19.0 °F 92% 29.97 in 6.0 mi Calm Calm - N/A   Clear